Time,TemperatureF,DewpointF,PressureIn,WindDirection,WindDirectionDegrees,WindSpeedMPH,WindSpeedGustMPH,Humidity,HourlyPrecipIn,Conditions,Clouds,dailyrainin,SoftwareType,DateUTC
2013-07-30 00:00:00,73.0,54.3,29.69,WSW,247,3.0,9.0,52,0.00,,,0.00,Weather View 32 v70,2013-07-30 04:00:00,
2013-07-30 00:05:00,73.0,53.7,29.68,WSW,247,4.0,9.0,51,0.00,,,0.00,Weather View 32 v70,2013-07-30 04:05:00,
2013-07-30 00:10:00,73.0,54.3,29.68,WSW,247,0.0,9.0,52,0.00,,,0.00,Weather View 32 v70,2013-07-30 04:10:00,
2013-07-30 00:15:00,73.0,53.7,29.69,WSW,247,2.0,9.0,51,0.00,,,0.00,Weather View 32 v70,2013-07-30 04:15:00,
2013-07-30 00:20:00,73.0,54.3,29.69,WSW,247,3.0,9.0,52,0.00,,,0.00,Weather View 32 v70,2013-07-30 04:20:00,
2013-07-30 00:25:00,73.0,53.7,29.69,NNW,337,4.0,9.0,51,0.00,,,0.00,Weather View 32 v70,2013-07-30 04:25:00,
2013-07-30 00:30:00,73.0,53.7,29.69,NNW,337,0.0,9.0,51,0.00,,,0.00,Weather View 32 v70,2013-07-30 04:30:00,
2013-07-30 00:35:00,73.0,53.7,29.70,NNW,337,3.0,9.0,51,0.00,,,0.00,Weather View 32 v70,2013-07-30 04:35:00,
2013-07-30 00:40:00,73.0,53.7,29.70,NNW,337,0.0,9.0,51,0.00,,,0.00,Weather View 32 v70,2013-07-30 04:40:00,
2013-07-30 00:45:00,73.0,53.2,29.71,NNW,337,1.0,9.0,50,0.00,,,0.00,Weather View 32 v70,2013-07-30 04:45:00,
2013-07-30 00:50:00,73.0,53.7,29.71,NNW,337,0.0,6.0,51,0.00,,,0.00,Weather View 32 v70,2013-07-30 04:50:00,
2013-07-30 00:55:00,73.0,53.2,29.69,NNW,337,0.0,6.0,50,0.00,,,0.00,Weather View 32 v70,2013-07-30 04:55:00,
2013-07-30 01:00:00,72.0,52.8,29.69,NNW,337,2.0,6.0,51,0.00,,,0.00,Weather View 32 v70,2013-07-30 05:00:00,
2013-07-30 01:05:00,72.0,52.3,29.69,NNW,337,3.0,6.0,50,0.00,,,0.00,Weather View 32 v70,2013-07-30 05:05:00,
2013-07-30 01:10:00,72.0,52.8,29.69,NNW,337,0.0,6.0,51,0.00,,,0.00,Weather View 32 v70,2013-07-30 05:10:00,
2013-07-30 01:15:00,72.0,52.3,29.70,NNW,337,0.0,6.0,50,0.00,,,0.00,Weather View 32 v70,2013-07-30 05:15:00,
2013-07-30 01:20:00,72.0,52.8,29.70,NNW,337,0.0,6.0,51,0.00,,,0.00,Weather View 32 v70,2013-07-30 05:20:00,
2013-07-30 01:30:00,72.0,52.3,29.71,NNW,337,0.0,4.0,50,0.00,,,0.00,Weather View 32 v70,2013-07-30 05:30:00,
2013-07-30 01:34:00,72.0,52.3,29.71,NNW,337,0.0,4.0,50,0.00,,,0.00,Weather View 32 v70,2013-07-30 05:34:00,
2013-07-30 01:40:00,73.0,53.2,29.69,NNW,337,0.0,4.0,50,0.00,,,0.00,Weather View 32 v70,2013-07-30 05:40:00,
2013-07-30 01:45:00,73.0,53.2,29.70,NNW,337,0.0,4.0,50,0.00,,,0.00,Weather View 32 v70,2013-07-30 05:45:00,
2013-07-30 01:50:00,73.0,53.2,29.70,NNW,337,0.0,4.0,50,0.00,,,0.00,Weather View 32 v70,2013-07-30 05:50:00,
2013-07-30 01:55:00,73.0,53.2,29.69,NNW,337,0.0,4.0,50,0.00,,,0.00,Weather View 32 v70,2013-07-30 05:55:00,
2013-07-30 02:00:00,73.0,53.2,29.69,NNW,337,0.0,4.0,50,0.00,,,0.00,Weather View 32 v70,2013-07-30 06:00:00,
2013-07-30 02:05:00,73.0,53.2,29.69,NNW,337,0.0,4.0,50,0.00,,,0.00,Weather View 32 v70,2013-07-30 06:05:00,
2013-07-30 02:10:00,73.0,53.2,29.69,NNW,337,0.0,2.0,50,0.00,,,0.00,Weather View 32 v70,2013-07-30 06:10:00,
2013-07-30 02:15:00,73.0,53.2,29.69,NNW,337,4.0,5.0,50,0.00,,,0.00,Weather View 32 v70,2013-07-30 06:15:00,
2013-07-30 02:20:00,73.0,53.2,29.69,NNW,337,5.0,5.0,50,0.00,,,0.00,Weather View 32 v70,2013-07-30 06:20:00,
2013-07-30 02:25:00,74.0,54.1,29.69,NNW,337,5.0,5.0,50,0.00,,,0.00,Weather View 32 v70,2013-07-30 06:25:00,
2013-07-30 02:30:00,73.0,53.7,29.69,NNW,337,5.0,6.0,51,0.00,,,0.00,Weather View 32 v70,2013-07-30 06:30:00,
2013-07-30 02:35:00,74.0,54.1,29.67,NNW,337,4.0,6.0,50,0.00,,,0.00,Weather View 32 v70,2013-07-30 06:35:00,
2013-07-30 02:45:00,73.0,53.2,29.68,NNW,337,5.0,6.0,50,0.00,,,0.00,Weather View 32 v70,2013-07-30 06:45:00,
2013-07-30 02:50:00,73.0,53.7,29.68,NNW,337,4.0,6.0,51,0.00,,,0.00,Weather View 32 v70,2013-07-30 06:50:00,
2013-07-30 02:55:00,73.0,53.7,29.68,NNW,337,4.0,6.0,51,0.00,,,0.00,Weather View 32 v70,2013-07-30 06:55:00,
2013-07-30 03:00:00,73.0,53.7,29.68,NNW,337,4.0,6.0,51,0.00,,,0.00,Weather View 32 v70,2013-07-30 07:00:00,
2013-07-30 03:05:00,73.0,53.2,29.69,NNW,337,5.0,6.0,50,0.00,,,0.00,Weather View 32 v70,2013-07-30 07:05:00,
2013-07-30 03:10:00,73.0,53.7,29.69,NNW,337,4.0,6.0,51,0.00,,,0.00,Weather View 32 v70,2013-07-30 07:10:00,
2013-07-30 03:15:00,73.0,53.2,29.67,NNW,337,4.0,6.0,50,0.00,,,0.00,Weather View 32 v70,2013-07-30 07:15:00,
2013-07-30 03:20:00,73.0,53.7,29.67,NNW,337,6.0,6.0,51,0.00,,,0.00,Weather View 32 v70,2013-07-30 07:20:00,
2013-07-30 03:25:00,73.0,53.2,29.69,NNW,337,4.0,6.0,50,0.00,,,0.00,Weather View 32 v70,2013-07-30 07:25:00,
2013-07-30 03:30:00,73.0,53.7,29.69,NNW,337,4.0,6.0,51,0.00,,,0.00,Weather View 32 v70,2013-07-30 07:30:00,
2013-07-30 03:35:00,73.0,53.2,29.68,NNW,337,4.0,6.0,50,0.00,,,0.00,Weather View 32 v70,2013-07-30 07:35:00,
2013-07-30 03:45:00,73.0,53.2,29.69,NNW,337,3.0,6.0,50,0.00,,,0.00,Weather View 32 v70,2013-07-30 07:45:00,
2013-07-30 03:50:00,73.0,53.7,29.69,NNW,337,3.0,6.0,51,0.00,,,0.00,Weather View 32 v70,2013-07-30 07:50:00,
2013-07-30 03:55:00,73.0,53.2,29.67,NNW,337,1.0,6.0,50,0.00,,,0.00,Weather View 32 v70,2013-07-30 07:55:00,
2013-07-30 04:00:00,73.0,53.2,29.67,NNW,337,0.0,6.0,50,0.00,,,0.00,Weather View 32 v70,2013-07-30 08:00:00,
2013-07-30 04:05:00,73.0,53.2,29.67,NNW,337,3.0,6.0,50,0.00,,,0.00,Weather View 32 v70,2013-07-30 08:05:00,
2013-07-30 04:10:00,73.0,53.2,29.67,NNW,337,5.0,6.0,50,0.00,,,0.00,Weather View 32 v70,2013-07-30 08:10:00,
2013-07-30 04:15:00,73.0,52.7,29.67,NNW,337,4.0,6.0,49,0.00,,,0.00,Weather View 32 v70,2013-07-30 08:15:00,
2013-07-30 04:20:00,73.0,53.2,29.67,NNW,337,2.0,6.0,50,0.00,,,0.00,Weather View 32 v70,2013-07-30 08:20:00,
2013-07-30 04:25:00,73.0,52.7,29.67,NNW,337,3.0,5.0,49,0.00,,,0.00,Weather View 32 v70,2013-07-30 08:25:00,
2013-07-30 04:30:00,73.0,53.2,29.67,NNW,337,2.0,5.0,50,0.00,,,0.00,Weather View 32 v70,2013-07-30 08:30:00,
2013-07-30 04:35:00,73.0,52.7,29.67,NNW,337,4.0,5.0,49,0.00,,,0.00,Weather View 32 v70,2013-07-30 08:35:00,
2013-07-30 04:40:00,73.0,52.7,29.67,NNW,337,4.0,5.0,49,0.00,,,0.00,Weather View 32 v70,2013-07-30 08:40:00,
2013-07-30 04:45:00,73.0,52.1,29.68,NNW,337,2.0,5.0,48,0.00,,,0.00,Weather View 32 v70,2013-07-30 08:45:00,
2013-07-30 04:55:00,73.0,52.1,29.67,NNW,337,4.0,5.0,48,0.00,,,0.00,Weather View 32 v70,2013-07-30 08:55:00,
2013-07-30 05:00:00,73.0,52.7,29.67,NNW,337,5.0,5.0,49,0.00,,,0.00,Weather View 32 v70,2013-07-30 09:00:00,
2013-07-30 05:05:00,74.0,53.0,29.67,NNW,337,7.0,7.0,48,0.00,,,0.00,Weather View 32 v70,2013-07-30 09:05:00,
2013-07-30 05:10:00,73.0,52.1,29.67,NNW,337,6.0,7.0,48,0.00,,,0.00,Weather View 32 v70,2013-07-30 09:10:00,
2013-07-30 05:15:00,73.0,52.1,29.69,NNW,337,7.0,7.0,48,0.00,,,0.00,Weather View 32 v70,2013-07-30 09:15:00,
2013-07-30 05:20:00,73.0,52.1,29.69,NNW,337,7.0,7.0,48,0.00,,,0.00,Weather View 32 v70,2013-07-30 09:20:00,
2013-07-30 05:25:00,73.0,52.1,29.67,NNW,337,6.0,7.0,48,0.00,,,0.00,Weather View 32 v70,2013-07-30 09:25:00,
2013-07-30 05:35:00,73.0,51.5,29.67,ENE,67,7.0,8.0,47,0.00,,,0.00,Weather View 32 v70,2013-07-30 09:35:00,
2013-07-30 05:40:00,73.0,52.1,29.67,NNW,337,3.0,8.0,48,0.00,,,0.00,Weather View 32 v70,2013-07-30 09:40:00,
2013-07-30 05:45:00,73.0,50.9,29.67,NNW,337,6.0,8.0,46,0.00,,,0.00,Weather View 32 v70,2013-07-30 09:45:00,
2013-07-30 05:50:00,73.0,52.1,29.67,NNW,337,6.0,8.0,48,0.00,,,0.00,Weather View 32 v70,2013-07-30 09:50:00,
2013-07-30 05:55:00,73.0,50.9,29.67,NNW,337,5.0,8.0,46,0.00,,,0.00,Weather View 32 v70,2013-07-30 09:55:00,
2013-07-30 06:00:00,73.0,51.5,29.67,NNW,337,0.0,8.0,47,0.00,,,0.00,Weather View 32 v70,2013-07-30 10:00:00,
2013-07-30 06:05:00,73.0,50.9,29.68,ENE,67,4.0,8.0,46,0.00,,,0.00,Weather View 32 v70,2013-07-30 10:05:00,
2013-07-30 06:10:00,73.0,50.9,29.68,ENE,67,6.0,8.0,46,0.00,,,0.00,Weather View 32 v70,2013-07-30 10:10:00,
2013-07-30 06:20:00,73.0,50.9,29.67,NNW,337,5.0,8.0,46,0.00,,,0.00,Weather View 32 v70,2013-07-30 10:20:00,
2013-07-30 06:25:00,73.0,50.3,29.68,NNW,337,4.0,8.0,45,0.00,,,0.00,Weather View 32 v70,2013-07-30 10:25:00,
2013-07-30 06:30:00,72.0,50.0,29.68,NNW,337,0.0,8.0,46,0.00,,,0.00,Weather View 32 v70,2013-07-30 10:30:00,
2013-07-30 06:35:00,72.0,49.4,29.69,NNW,337,0.0,8.0,45,0.00,,,0.00,Weather View 32 v70,2013-07-30 10:35:00,
2013-07-30 06:40:00,73.0,50.9,29.69,NNW,337,4.0,8.0,46,0.00,,,0.00,Weather View 32 v70,2013-07-30 10:40:00,
2013-07-30 06:45:00,73.0,50.3,29.69,NNW,337,4.0,7.0,45,0.00,,,0.00,Weather View 32 v70,2013-07-30 10:45:00,
2013-07-30 06:55:00,73.0,49.7,29.71,NNW,337,3.0,7.0,44,0.00,,,0.00,Weather View 32 v70,2013-07-30 10:55:00,
2013-07-30 07:00:00,73.0,50.3,29.71,NNW,337,8.0,9.0,45,0.00,,,0.00,Weather View 32 v70,2013-07-30 11:00:00,
2013-07-30 07:05:00,73.0,49.1,29.69,NNW,337,6.0,10.0,43,0.00,,,0.00,Weather View 32 v70,2013-07-30 11:05:00,
2013-07-30 07:10:00,73.0,50.3,29.69,WSW,247,5.0,10.0,45,0.00,,,0.00,Weather View 32 v70,2013-07-30 11:10:00,
2013-07-30 07:15:00,73.0,49.1,29.69,NNW,337,4.0,10.0,43,0.00,,,0.00,Weather View 32 v70,2013-07-30 11:15:00,
2013-07-30 07:25:00,73.0,49.7,29.70,NNW,337,4.0,10.0,44,0.00,,,0.00,Weather View 32 v70,2013-07-30 11:25:00,
2013-07-30 07:30:00,73.0,50.3,29.70,NNW,337,4.0,10.0,45,0.00,,,0.00,Weather View 32 v70,2013-07-30 11:30:00,
2013-07-30 07:35:00,73.0,49.7,29.71,NNW,337,5.0,10.0,44,0.00,,,0.00,Weather View 32 v70,2013-07-30 11:35:00,
2013-07-30 07:40:00,73.0,50.3,29.71,NNW,337,4.0,10.0,45,0.00,,,0.00,Weather View 32 v70,2013-07-30 11:40:00,
2013-07-30 07:45:00,73.0,49.7,29.72,NNW,337,7.0,10.0,44,0.00,,,0.00,Weather View 32 v70,2013-07-30 11:45:00,
2013-07-30 07:50:00,72.0,49.4,29.72,NNW,337,9.0,10.0,45,0.00,,,0.00,Weather View 32 v70,2013-07-30 11:50:00,
2013-07-30 07:55:00,73.0,49.1,29.72,NNW,337,8.0,10.0,43,0.00,,,0.00,Weather View 32 v70,2013-07-30 11:55:00,
2013-07-30 08:00:00,73.0,50.3,29.72,ENE,67,6.0,10.0,45,0.00,,,0.00,Weather View 32 v70,2013-07-30 12:00:00,
2013-07-30 08:10:00,73.0,50.3,29.70,ENE,67,5.0,9.0,45,0.00,,,0.00,Weather View 32 v70,2013-07-30 12:10:00,
2013-07-30 08:15:00,73.0,49.1,29.71,ENE,67,6.0,9.0,43,0.00,,,0.00,Weather View 32 v70,2013-07-30 12:15:00,
2013-07-30 08:20:00,73.0,50.3,29.71,ENE,67,1.0,9.0,45,0.00,,,0.00,Weather View 32 v70,2013-07-30 12:20:00,
2013-07-30 08:25:00,73.0,49.1,29.72,ENE,67,2.0,9.0,43,0.00,,,0.00,Weather View 32 v70,2013-07-30 12:25:00,
2013-07-30 08:30:00,73.0,50.3,29.72,ENE,67,4.0,9.0,45,0.00,,,0.00,Weather View 32 v70,2013-07-30 12:30:00,
2013-07-30 08:35:00,74.0,50.0,29.71,ENE,67,2.0,9.0,43,0.00,,,0.00,Weather View 32 v70,2013-07-30 12:35:00,
2013-07-30 08:40:00,74.0,51.2,29.71,NNW,337,5.0,9.0,45,0.00,,,0.00,Weather View 32 v70,2013-07-30 12:40:00,
2013-07-30 08:50:00,74.0,51.2,29.73,NNW,337,1.0,9.0,45,0.00,,,0.00,Weather View 32 v70,2013-07-30 12:50:00,
2013-07-30 08:55:00,75.0,52.2,29.71,NNW,337,1.0,8.0,45,0.00,,,0.00,Weather View 32 v70,2013-07-30 12:55:00,
2013-07-30 09:00:00,75.0,52.8,29.71,NNW,337,0.0,7.0,46,0.00,,,0.00,Weather View 32 v70,2013-07-30 13:00:00,
2013-07-30 09:05:00,75.0,52.2,29.72,SSE,157,0.0,7.0,45,0.00,,,0.00,Weather View 32 v70,2013-07-30 13:05:00,
2013-07-30 09:10:00,75.0,54.5,29.72,SSE,157,2.0,7.0,49,0.00,,,0.00,Weather View 32 v70,2013-07-30 13:10:00,
2013-07-30 09:15:00,75.0,55.0,29.72,ENE,67,2.0,6.0,50,0.00,,,0.00,Weather View 32 v70,2013-07-30 13:15:00,
2013-07-30 09:20:00,75.0,55.6,29.72,ENE,67,4.0,6.0,51,0.00,,,0.00,Weather View 32 v70,2013-07-30 13:20:00,
2013-07-30 09:25:00,75.0,59.7,29.71,ENE,67,3.0,6.0,59,0.00,,,0.00,Weather View 32 v70,2013-07-30 13:25:00,
2013-07-30 09:30:00,76.0,56.5,29.71,ENE,67,5.0,6.0,51,0.00,,,0.00,Weather View 32 v70,2013-07-30 13:30:00,
2013-07-30 09:39:00,76.0,61.1,29.73,ENE,67,6.0,7.0,60,0.00,,,0.00,Weather View 32 v70,2013-07-30 13:39:00,
2013-07-30 09:45:00,76.0,61.1,29.71,ENE,67,4.0,7.0,60,0.00,,,0.00,Weather View 32 v70,2013-07-30 13:45:00,
2013-07-30 09:50:00,76.0,57.0,29.71,ENE,67,8.0,9.0,52,0.00,,,0.00,Weather View 32 v70,2013-07-30 13:50:00,
2013-07-30 09:55:00,76.0,61.5,29.72,ENE,67,7.0,9.0,61,0.00,,,0.00,Weather View 32 v70,2013-07-30 13:55:00,
2013-07-30 10:00:00,76.0,57.6,29.72,ENE,67,8.0,10.0,53,0.00,,,0.00,Weather View 32 v70,2013-07-30 14:00:00,
2013-07-30 10:05:00,76.0,61.5,29.70,ENE,67,8.0,10.0,61,0.00,,,0.00,Weather View 32 v70,2013-07-30 14:05:00,
2013-07-30 10:10:00,76.0,57.0,29.70,ENE,67,10.0,11.0,52,0.00,,,0.00,Weather View 32 v70,2013-07-30 14:10:00,
2013-07-30 10:15:00,76.0,61.1,29.71,ENE,67,9.0,11.0,60,0.00,,,0.00,Weather View 32 v70,2013-07-30 14:15:00,
2013-07-30 10:25:00,76.0,61.5,29.73,ENE,67,10.0,12.0,61,0.00,,,0.00,Weather View 32 v70,2013-07-30 14:25:00,
2013-07-30 10:30:00,76.0,57.6,29.73,ENE,67,7.0,13.0,53,0.00,,,0.00,Weather View 32 v70,2013-07-30 14:30:00,
2013-07-30 10:35:00,76.0,61.5,29.71,ENE,67,10.0,13.0,61,0.00,,,0.00,Weather View 32 v70,2013-07-30 14:35:00,
2013-07-30 10:40:00,76.0,57.6,29.71,ENE,67,9.0,13.0,53,0.00,,,0.00,Weather View 32 v70,2013-07-30 14:40:00,
2013-07-30 10:45:00,76.0,61.5,29.73,ENE,67,9.0,13.0,61,0.00,,,0.00,Weather View 32 v70,2013-07-30 14:45:00,
2013-07-30 10:50:00,76.0,57.6,29.73,ENE,67,8.0,13.0,53,0.00,,,0.00,Weather View 32 v70,2013-07-30 14:50:00,
2013-07-30 10:55:00,76.0,61.5,29.73,ENE,67,12.0,13.0,61,0.00,,,0.00,Weather View 32 v70,2013-07-30 14:55:00,
2013-07-30 11:00:00,76.0,57.6,29.73,ENE,67,10.0,13.0,53,0.00,,,0.00,Weather View 32 v70,2013-07-30 15:00:00,
2013-07-30 11:05:00,76.0,62.0,29.71,ENE,67,10.0,13.0,62,0.00,,,0.00,Weather View 32 v70,2013-07-30 15:05:00,
2013-07-30 11:15:00,77.0,62.9,29.70,ENE,67,8.0,13.0,62,0.00,,,0.00,Weather View 32 v70,2013-07-30 15:15:00,
2013-07-30 11:20:00,77.0,58.5,29.70,ENE,67,11.0,13.0,53,0.00,,,0.00,Weather View 32 v70,2013-07-30 15:20:00,
2013-07-30 11:25:00,77.0,62.9,29.70,ENE,67,9.0,13.0,62,0.00,,,0.00,Weather View 32 v70,2013-07-30 15:25:00,
2013-07-30 11:30:00,77.0,58.5,29.70,ENE,67,8.0,13.0,53,0.00,,,0.00,Weather View 32 v70,2013-07-30 15:30:00,
2013-07-30 11:35:00,77.0,62.9,29.73,ENE,67,10.0,13.0,62,0.00,,,0.00,Weather View 32 v70,2013-07-30 15:35:00,
2013-07-30 11:40:00,76.0,58.6,29.73,ENE,67,9.0,13.0,55,0.00,,,0.00,Weather View 32 v70,2013-07-30 15:40:00,
2013-07-30 11:45:00,77.0,62.9,29.71,ENE,67,10.0,13.0,62,0.00,,,0.00,Weather View 32 v70,2013-07-30 15:45:00,
2013-07-30 11:50:00,78.0,60.0,29.71,ENE,67,9.0,13.0,54,0.00,,,0.00,Weather View 32 v70,2013-07-30 15:50:00,
2013-07-30 12:00:00,78.0,60.5,29.69,SSE,157,7.0,13.0,55,0.00,,,0.00,Weather View 32 v70,2013-07-30 16:00:00,
2013-07-30 12:05:00,78.0,64.8,29.69,SSE,157,7.0,13.0,64,0.00,,,0.00,Weather View 32 v70,2013-07-30 16:05:00,
2013-07-30 12:10:00,78.0,61.0,29.69,ENE,67,7.0,13.0,56,0.00,,,0.00,Weather View 32 v70,2013-07-30 16:10:00,
2013-07-30 12:15:00,78.0,64.8,29.70,SSE,157,7.0,13.0,64,0.00,,,0.00,Weather View 32 v70,2013-07-30 16:15:00,
2013-07-30 12:20:00,78.0,61.0,29.70,ENE,67,6.0,13.0,56,0.00,,,0.00,Weather View 32 v70,2013-07-30 16:20:00,
2013-07-30 12:25:00,78.0,64.8,29.72,ENE,67,8.0,13.0,64,0.00,,,0.00,Weather View 32 v70,2013-07-30 16:25:00,
2013-07-30 12:30:00,78.0,61.5,29.72,ENE,67,7.0,13.0,57,0.00,,,0.00,Weather View 32 v70,2013-07-30 16:30:00,
2013-07-30 12:35:00,79.0,65.7,29.69,ENE,67,7.0,12.0,64,0.00,,,0.00,Weather View 32 v70,2013-07-30 16:35:00,
2013-07-30 12:40:00,79.0,62.9,29.69,SSE,157,6.0,12.0,58,0.00,,,0.00,Weather View 32 v70,2013-07-30 16:40:00,
2013-07-30 12:50:00,79.0,62.9,29.71,ENE,67,5.0,11.0,58,0.00,,,0.00,Weather View 32 v70,2013-07-30 16:50:00,
2013-07-30 12:55:00,80.0,67.1,29.68,ENE,67,8.0,11.0,65,0.00,,,0.00,Weather View 32 v70,2013-07-30 16:55:00,
2013-07-30 13:00:00,80.0,64.3,29.68,ENE,67,8.0,11.0,59,0.00,,,0.00,Weather View 32 v70,2013-07-30 17:00:00,
2013-07-30 13:05:00,80.0,67.6,29.69,ENE,67,4.0,11.0,66,0.00,,,0.00,Weather View 32 v70,2013-07-30 17:05:00,
2013-07-30 13:10:00,80.0,64.3,29.69,ENE,67,4.0,11.0,59,0.00,,,0.00,Weather View 32 v70,2013-07-30 17:10:00,
2013-07-30 13:15:00,79.0,66.6,29.67,ENE,67,10.0,11.0,66,0.00,,,0.00,Weather View 32 v70,2013-07-30 17:15:00,
2013-07-30 13:20:00,79.0,63.4,29.67,ENE,67,7.0,11.0,59,0.00,,,0.00,Weather View 32 v70,2013-07-30 17:20:00,
2013-07-30 13:25:00,79.0,66.6,29.69,ENE,67,5.0,11.0,66,0.00,,,0.00,Weather View 32 v70,2013-07-30 17:25:00,
2013-07-30 13:30:00,79.0,62.9,29.69,ENE,67,9.0,11.0,58,0.00,,,0.00,Weather View 32 v70,2013-07-30 17:30:00,
2013-07-30 13:40:00,79.0,63.4,29.68,ENE,67,5.0,11.0,59,0.00,,,0.00,Weather View 32 v70,2013-07-30 17:40:00,
2013-07-30 13:45:00,79.0,66.6,29.66,ENE,67,7.0,11.0,66,0.00,,,0.00,Weather View 32 v70,2013-07-30 17:45:00,
2013-07-30 13:50:00,79.0,63.9,29.66,ENE,67,6.0,11.0,60,0.00,,,0.00,Weather View 32 v70,2013-07-30 17:50:00,
2013-07-30 13:55:00,79.0,66.6,29.69,ENE,67,3.0,11.0,66,0.00,,,0.00,Weather View 32 v70,2013-07-30 17:55:00,
2013-07-30 14:00:00,79.0,63.9,29.69,ENE,67,8.0,11.0,60,0.00,,,0.00,Weather View 32 v70,2013-07-30 18:00:00,
2013-07-30 14:05:00,79.0,66.6,29.66,ENE,67,9.0,12.0,66,0.00,,,0.00,Weather View 32 v70,2013-07-30 18:05:00,
2013-07-30 14:10:00,78.0,62.5,29.66,ENE,67,7.0,12.0,59,0.00,,,0.00,Weather View 32 v70,2013-07-30 18:10:00,
2013-07-30 14:15:00,78.0,65.7,29.69,ENE,67,9.0,12.0,66,0.00,,,0.00,Weather View 32 v70,2013-07-30 18:15:00,
2013-07-30 14:20:00,79.0,62.9,29.69,ENE,67,9.0,12.0,58,0.00,,,0.00,Weather View 32 v70,2013-07-30 18:20:00,
2013-07-30 14:30:00,79.0,63.4,29.66,ENE,67,7.0,12.0,59,0.00,,,0.00,Weather View 32 v70,2013-07-30 18:30:00,
2013-07-30 14:35:00,79.0,66.6,29.68,SSE,157,5.0,12.0,66,0.00,,,0.00,Weather View 32 v70,2013-07-30 18:35:00,
2013-07-30 14:40:00,79.0,63.9,29.68,SSE,157,11.0,12.0,60,0.00,,,0.00,Weather View 32 v70,2013-07-30 18:40:00,
2013-07-30 14:45:00,78.0,65.7,29.66,ENE,67,8.0,12.0,66,0.00,,,0.00,Weather View 32 v70,2013-07-30 18:45:00,
2013-07-30 14:50:00,79.0,63.4,29.66,ENE,67,10.0,12.0,59,0.00,,,0.00,Weather View 32 v70,2013-07-30 18:50:00,
2013-07-30 14:55:00,79.0,66.6,29.65,ENE,67,10.0,13.0,66,0.00,,,0.00,Weather View 32 v70,2013-07-30 18:55:00,
2013-07-30 15:05:00,79.0,67.1,29.67,ENE,67,8.0,13.0,67,0.00,,,0.00,Weather View 32 v70,2013-07-30 19:05:00,
2013-07-30 15:10:00,79.0,63.4,29.67,SSE,157,9.0,13.0,59,0.00,,,0.00,Weather View 32 v70,2013-07-30 19:10:00,
2013-07-30 15:15:00,79.0,66.6,29.65,ENE,67,6.0,13.0,66,0.00,,,0.00,Weather View 32 v70,2013-07-30 19:15:00,
2013-07-30 15:20:00,78.0,62.5,29.65,SSE,157,9.0,13.0,59,0.00,,,0.00,Weather View 32 v70,2013-07-30 19:20:00,
2013-07-30 15:25:00,79.0,66.6,29.68,SSE,157,7.0,13.0,66,0.00,,,0.00,Weather View 32 v70,2013-07-30 19:25:00,
2013-07-30 15:30:00,80.0,64.8,29.68,SSE,157,7.0,13.0,60,0.00,,,0.00,Weather View 32 v70,2013-07-30 19:30:00,
2013-07-30 15:35:00,80.0,68.0,29.67,SSE,157,8.0,13.0,67,0.00,,,0.00,Weather View 32 v70,2013-07-30 19:35:00,
2013-07-30 15:40:00,80.0,65.3,29.67,SSE,157,7.0,13.0,61,0.00,,,0.00,Weather View 32 v70,2013-07-30 19:40:00,
2013-07-30 15:45:00,79.0,67.1,29.65,SSE,157,7.0,13.0,67,0.00,,,0.00,Weather View 32 v70,2013-07-30 19:45:00,
2013-07-30 15:50:00,80.0,65.3,29.65,SSE,157,8.0,13.0,61,0.00,,,0.00,Weather View 32 v70,2013-07-30 19:50:00,
2013-07-30 16:00:00,81.0,66.2,29.67,SSE,157,5.0,13.0,61,0.00,,,0.00,Weather View 32 v70,2013-07-30 20:00:00,
2013-07-30 16:05:00,81.0,69.4,29.63,SSE,157,6.0,13.0,68,0.00,,,0.00,Weather View 32 v70,2013-07-30 20:05:00,
2013-07-30 16:10:00,80.0,65.8,29.63,SSE,157,6.0,13.0,62,0.00,,,0.00,Weather View 32 v70,2013-07-30 20:10:00,
2013-07-30 16:15:00,80.0,68.4,29.67,SSE,157,7.0,13.0,68,0.00,,,0.00,Weather View 32 v70,2013-07-30 20:15:00,
2013-07-30 16:20:00,80.0,65.8,29.67,SSE,157,11.0,13.0,62,0.00,,,0.00,Weather View 32 v70,2013-07-30 20:20:00,
2013-07-30 16:25:00,80.0,68.0,29.64,SSE,157,9.0,13.0,67,0.00,,,0.00,Weather View 32 v70,2013-07-30 20:25:00,
2013-07-30 16:30:00,81.0,66.7,29.64,SSE,157,9.0,15.0,62,0.00,,,0.00,Weather View 32 v70,2013-07-30 20:30:00,
2013-07-30 16:35:00,81.0,69.8,29.65,SSE,157,12.0,15.0,69,0.00,,,0.00,Weather View 32 v70,2013-07-30 20:35:00,
2013-07-30 16:42:00,80.0,65.8,29.65,SSE,157,8.0,15.0,62,0.00,,,0.00,Weather View 32 v70,2013-07-30 20:42:00,
2013-07-30 16:50:00,80.0,66.2,29.63,SSE,157,13.0,15.0,63,0.00,,,0.00,Weather View 32 v70,2013-07-30 20:50:00,
2013-07-30 16:55:00,80.0,68.9,29.63,SSE,157,11.0,15.0,69,0.00,,,0.00,Weather View 32 v70,2013-07-30 20:55:00,
2013-07-30 17:00:00,80.0,66.2,29.63,SSE,157,11.0,15.0,63,0.00,,,0.00,Weather View 32 v70,2013-07-30 21:00:00,
2013-07-30 17:05:00,80.0,68.9,29.65,SSE,157,9.0,15.0,69,0.00,,,0.00,Weather View 32 v70,2013-07-30 21:05:00,
2013-07-30 17:10:00,81.0,67.6,29.65,SSE,157,10.0,15.0,64,0.00,,,0.00,Weather View 32 v70,2013-07-30 21:10:00,
2013-07-30 17:15:00,81.0,70.2,29.63,SSE,157,7.0,15.0,70,0.00,,,0.00,Weather View 32 v70,2013-07-30 21:15:00,
2013-07-30 17:20:00,81.0,67.6,29.63,SSE,157,13.0,15.0,64,0.00,,,0.00,Weather View 32 v70,2013-07-30 21:20:00,
2013-07-30 17:30:00,81.0,67.6,29.65,SSE,157,11.0,15.0,64,0.00,,,0.00,Weather View 32 v70,2013-07-30 21:30:00,
2013-07-30 17:35:00,81.0,69.8,29.62,SSE,157,10.0,15.0,69,0.00,,,0.00,Weather View 32 v70,2013-07-30 21:35:00,
2013-07-30 17:40:00,80.0,66.7,29.62,WSW,247,7.0,15.0,64,0.00,,,0.00,Weather View 32 v70,2013-07-30 21:40:00,
2013-07-30 17:45:00,81.0,69.8,29.62,SSE,157,12.0,15.0,69,0.00,,,0.00,Weather View 32 v70,2013-07-30 21:45:00,
2013-07-30 17:50:00,80.0,66.2,29.62,SSE,157,10.0,15.0,63,0.00,,,0.00,Weather View 32 v70,2013-07-30 21:50:00,
2013-07-30 17:55:00,81.0,69.8,29.62,SSE,157,7.0,15.0,69,0.00,,,0.00,Weather View 32 v70,2013-07-30 21:55:00,
2013-07-30 18:00:00,81.0,67.2,29.62,SSE,157,6.0,15.0,63,0.00,,,0.00,Weather View 32 v70,2013-07-30 22:00:00,
2013-07-30 18:10:00,81.0,67.6,29.62,SSE,157,8.0,15.0,64,0.00,,,0.00,Weather View 32 v70,2013-07-30 22:10:00,
2013-07-30 18:20:00,81.0,67.6,29.65,SSE,157,5.0,15.0,64,0.00,,,0.00,Weather View 32 v70,2013-07-30 22:20:00,
2013-07-30 18:25:00,80.0,68.9,29.63,SSE,157,10.0,15.0,69,0.00,,,0.00,Weather View 32 v70,2013-07-30 22:25:00,
2013-07-30 18:30:00,80.0,66.7,29.63,SSE,157,9.0,14.0,64,0.00,,,0.00,Weather View 32 v70,2013-07-30 22:30:00,
2013-07-30 18:35:00,80.0,68.9,29.63,SSE,157,9.0,14.0,69,0.00,,,0.00,Weather View 32 v70,2013-07-30 22:35:00,
2013-07-30 18:40:00,80.0,66.2,29.63,SSE,157,8.0,14.0,63,0.00,,,0.00,Weather View 32 v70,2013-07-30 22:40:00,
2013-07-30 18:45:00,81.0,69.8,29.62,SSE,157,9.0,13.0,69,0.00,,,0.00,Weather View 32 v70,2013-07-30 22:45:00,
2013-07-30 18:50:00,80.0,66.2,29.62,SSE,157,6.0,13.0,63,0.00,,,0.00,Weather View 32 v70,2013-07-30 22:50:00,
2013-07-30 18:55:00,80.0,68.4,29.65,SSE,157,11.0,13.0,68,0.00,,,0.00,Weather View 32 v70,2013-07-30 22:55:00,
2013-07-30 19:00:00,80.0,65.8,29.65,SSE,157,7.0,13.0,62,0.00,,,0.00,Weather View 32 v70,2013-07-30 23:00:00,
2013-07-30 19:10:00,79.0,64.8,29.63,SSE,157,2.0,13.0,62,0.00,,,0.00,Weather View 32 v70,2013-07-30 23:10:00,
2013-07-30 19:15:00,80.0,68.4,29.65,SSE,157,0.0,13.0,68,0.00,,,0.00,Weather View 32 v70,2013-07-30 23:15:00,
2013-07-30 19:20:00,80.0,65.8,29.65,SSE,157,6.0,13.0,62,0.00,,,0.00,Weather View 32 v70,2013-07-30 23:20:00,
2013-07-30 19:25:00,79.0,67.5,29.64,SSE,157,6.0,12.0,68,0.00,,,0.00,Weather View 32 v70,2013-07-30 23:25:00,
2013-07-30 19:30:00,79.0,64.3,29.64,SSE,157,5.0,12.0,61,0.00,,,0.00,Weather View 32 v70,2013-07-30 23:30:00,
2013-07-30 19:35:00,79.0,67.1,29.63,SSE,157,6.0,12.0,67,0.00,,,0.00,Weather View 32 v70,2013-07-30 23:35:00,
2013-07-30 19:40:00,79.0,63.9,29.63,SSE,157,6.0,12.0,60,0.00,,,0.00,Weather View 32 v70,2013-07-30 23:40:00,
2013-07-30 19:45:00,79.0,66.6,29.63,SSE,157,5.0,12.0,66,0.00,,,0.00,Weather View 32 v70,2013-07-30 23:45:00,
2013-07-30 19:50:00,79.0,63.9,29.63,SSE,157,6.0,12.0,60,0.00,,,0.00,Weather View 32 v70,2013-07-30 23:50:00,
2013-07-30 19:55:00,79.0,66.6,29.64,SSE,157,6.0,12.0,66,0.00,,,0.00,Weather View 32 v70,2013-07-30 23:55:00,
2013-07-30 20:05:00,79.0,66.2,29.64,SSE,157,3.0,10.0,65,0.00,,,0.00,Weather View 32 v70,2013-07-31 00:05:00,
2013-07-30 20:10:00,78.0,62.0,29.64,SSE,157,4.0,9.0,58,0.00,,,0.00,Weather View 32 v70,2013-07-31 00:10:00,
2013-07-30 20:15:00,79.0,66.2,29.64,SSE,157,3.0,9.0,65,0.00,,,0.00,Weather View 32 v70,2013-07-31 00:15:00,
2013-07-30 20:20:00,78.0,62.0,29.64,SSE,157,4.0,9.0,58,0.00,,,0.00,Weather View 32 v70,2013-07-31 00:20:00,
2013-07-30 20:25:00,79.0,65.7,29.65,SSE,157,2.0,9.0,64,0.00,,,0.00,Weather View 32 v70,2013-07-31 00:25:00,
2013-07-30 20:30:00,78.0,61.0,29.65,ENE,67,4.0,9.0,56,0.00,,,0.00,Weather View 32 v70,2013-07-31 00:30:00,
2013-07-30 20:35:00,79.0,65.7,29.65,ENE,67,6.0,7.0,64,0.00,,,0.00,Weather View 32 v70,2013-07-31 00:35:00,
2013-07-30 20:40:00,78.0,60.5,29.65,ENE,67,5.0,7.0,55,0.00,,,0.00,Weather View 32 v70,2013-07-31 00:40:00,
2013-07-30 20:45:00,78.0,64.8,29.65,ENE,67,5.0,7.0,64,0.00,,,0.00,Weather View 32 v70,2013-07-31 00:45:00,
2013-07-30 20:55:00,78.0,64.8,29.65,ENE,67,0.0,7.0,64,0.00,,,0.00,Weather View 32 v70,2013-07-31 00:55:00,
2013-07-30 21:00:00,76.0,59.6,29.65,WSW,247,15.0,17.0,57,0.00,,,0.00,Weather View 32 v70,2013-07-31 01:00:00,
2013-07-30 21:05:00,76.0,62.9,29.68,WSW,247,15.0,19.0,64,0.00,,,0.00,Weather View 32 v70,2013-07-31 01:05:00,
2013-07-30 21:10:00,75.0,57.2,29.68,NNW,337,22.0,22.0,54,0.03,,,0.03,Weather View 32 v70,2013-07-31 01:10:00,
2013-07-30 21:15:00,73.0,57.3,29.69,NNW,337,11.0,28.0,58,0.34,,,0.34,Weather View 32 v70,2013-07-31 01:15:00,
2013-07-30 21:20:00,73.0,53.2,29.69,ENE,67,13.0,28.0,50,0.64,,,0.64,Weather View 32 v70,2013-07-31 01:20:00,
2013-07-30 21:25:00,74.0,58.2,29.69,ENE,67,3.0,28.0,58,0.66,,,0.66,Weather View 32 v70,2013-07-31 01:25:00,
2013-07-30 21:30:00,74.0,53.0,29.69,WSW,247,9.0,28.0,48,0.67,,,0.67,Weather View 32 v70,2013-07-31 01:30:00,
2013-07-30 21:35:00,74.0,57.8,29.68,WSW,247,9.0,28.0,57,0.67,,,0.67,Weather View 32 v70,2013-07-31 01:35:00,
2013-07-30 21:45:00,74.0,58.7,29.67,SSE,157,7.0,28.0,59,0.67,,,0.67,Weather View 32 v70,2013-07-31 01:45:00,
2013-07-30 21:55:00,75.0,60.1,29.67,SSE,157,6.0,28.0,60,0.67,,,0.67,Weather View 32 v70,2013-07-31 01:55:00,
2013-07-30 22:00:00,75.0,55.0,29.67,SSE,157,7.0,28.0,50,0.67,,,0.67,Weather View 32 v70,2013-07-31 02:00:00,
2013-07-30 22:05:00,75.0,59.2,29.66,SSE,157,2.0,28.0,58,0.67,,,0.67,Weather View 32 v70,2013-07-31 02:05:00,
2013-07-30 22:10:00,75.0,55.0,29.66,SSE,157,3.0,28.0,50,0.64,,,0.67,Weather View 32 v70,2013-07-31 02:10:00,
2013-07-30 22:15:00,75.0,60.1,29.66,SSE,157,7.0,21.0,60,0.33,,,0.67,Weather View 32 v70,2013-07-31 02:15:00,
2013-07-30 22:20:00,75.0,56.7,29.66,SSE,157,6.0,16.0,53,0.03,,,0.67,Weather View 32 v70,2013-07-31 02:20:00,
2013-07-30 22:25:00,76.0,62.9,29.65,SSE,157,7.0,15.0,64,0.01,,,0.67,Weather View 32 v70,2013-07-31 02:25:00,
2013-07-30 22:30:00,76.0,58.6,29.65,SSE,157,6.0,15.0,55,0.00,,,0.67,Weather View 32 v70,2013-07-31 02:30:00,
2013-07-30 22:40:00,76.0,58.6,29.67,NNW,337,0.0,9.0,55,0.00,,,0.67,Weather View 32 v70,2013-07-31 02:40:00,
2013-07-30 22:45:00,76.0,62.0,29.66,NNW,337,4.0,9.0,62,0.00,,,0.67,Weather View 32 v70,2013-07-31 02:45:00,
2013-07-30 22:50:00,76.0,57.6,29.66,NNW,337,0.0,9.0,53,0.00,,,0.67,Weather View 32 v70,2013-07-31 02:50:00,
2013-07-30 22:55:00,76.0,61.5,29.66,NNW,337,6.0,9.0,61,0.00,,,0.67,Weather View 32 v70,2013-07-31 02:55:00,
2013-07-30 23:00:00,75.0,55.0,29.66,NNW,337,7.0,10.0,50,0.00,,,0.67,Weather View 32 v70,2013-07-31 03:00:00,
2013-07-30 23:05:00,75.0,59.2,29.67,NNW,337,6.0,10.0,58,0.00,,,0.67,Weather View 32 v70,2013-07-31 03:05:00,
2013-07-30 23:10:00,74.0,53.0,29.67,NNW,337,9.0,10.0,48,0.00,,,0.67,Weather View 32 v70,2013-07-31 03:10:00,
2013-07-30 23:15:00,74.0,57.3,29.68,NNW,337,7.0,10.0,56,0.00,,,0.67,Weather View 32 v70,2013-07-31 03:15:00,
2013-07-30 23:20:00,74.0,51.8,29.68,NNW,337,7.0,10.0,46,0.00,,,0.67,Weather View 32 v70,2013-07-31 03:20:00,
2013-07-30 23:25:00,74.0,57.3,29.66,NNW,337,5.0,10.0,56,0.00,,,0.67,Weather View 32 v70,2013-07-31 03:25:00,
2013-07-30 23:30:00,74.0,51.8,29.66,NNW,337,4.0,10.0,46,0.00,,,0.67,Weather View 32 v70,2013-07-31 03:30:00,
2013-07-30 23:40:00,74.0,51.2,29.68,NNW,337,4.0,10.0,45,0.00,,,0.67,Weather View 32 v70,2013-07-31 03:40:00,
2013-07-30 23:45:00,74.0,56.8,29.66,NNW,337,1.0,10.0,55,0.00,,,0.67,Weather View 32 v70,2013-07-31 03:45:00,
2013-07-30 23:50:00,74.0,51.2,29.66,NNW,337,3.0,10.0,45,0.00,,,0.67,Weather View 32 v70,2013-07-31 03:50:00,
2013-07-30 23:55:00,74.0,56.8,29.67,NNW,337,0.0,10.0,55,0.00,,,0.67,Weather View 32 v70,2013-07-31 03:55:00,